Location: ????
(55.5675°N, 37.6272°E)
Time: 07:18:56
(UTC+00:00)

Cosmos 2366 rocket - Pass Details

Date: 14 April 2026
Orbit: 954 x 996 km, 82.9° (Epoch: 12 May)

Event Time Altitude Azimuth Distance (km) Brightness Sun altitude
Rises 17:25:20 0° 169° (SSE) 3,640 6.6 -7.6°
Reaches altitude 10° 17:27:54 10° 164° (SSE) 2,693 5.9 -7.9°
Maximum altitude 17:33:47 49° 91° (E) 1,215 4.2 -8.6°
Drops below altitude 10° 17:39:40 10° 19° (NNE) 2,697 6.5 -9.3°
Sets 17:42:14 0° 14° (NNE) 3,646 7.3 -9.6°
